Regional Weather Roundup
Issued by NWS

Home | Current Version | Previous Version | Text Only | Print | Product List | Glossary Off
Versions: 1 2 3 4 5 6 7 8 9 10 11 12 13 14 15 16 17 18 19 20 21 22 23 24 25 26 27 28 29 30 31 32 33 34 35 36 37 38 39 40 41 42 43 44 45 46 47 48 49 50

000
ASUS43 KLSX 262307
RWRMO

WEATHER SUMMARY FOR MISSOURI
NATIONAL WEATHER SERVICE SPRINGFIELD MO
600 PM CDT FRI AUG 26 2016

NOTE: "FAIR" INDICATES FEW OR NO CLOUDS BELOW 12,000 FEET WITH NO
       SIGNIFICANT WEATHER AND/OR OBSTRUCTIONS TO VISIBILITY.
       CURRENT SKY AND/OR WEATHER CONDITIONS ARE NOT AVAILABLE FOR
       CHILLICOTHE AND FARMINGTON.

MOZ001>031-035>038-043-044-053-054-270000-
...NORTHERN AND WESTERN MISSOURI...

CITY           SKY/WX    TMP DP  RH WIND       PRES   REMARKS
KANSAS CTY INT PTSUNNY   81  70  69 SE10G18   29.96F
KANSAS C DTWN  MOSUNNY   83  70  64 SE12      29.95F
LEE`S SUMMIT   CLOUDY    81  72  74 SE10      29.98F
ST JOSEPH      TSTM      74  71  91 W3        29.98R VSB 3/4
CHILLICOTHE      N/A     79  71  76 E8        30.02F
KIRKSVILLE     CLOUDY    77  71  82 NE6       30.05F

$$
MOZ066>068-077>081-088>096-101>105-270000-
...SOUTHWEST MISSOURI...

CITY           SKY/WX    TMP DP  RH WIND       PRES   REMARKS
SPRINGFIELD    PTSUNNY   80  71  74 SW6       30.04R
JOPLIN         CLOUDY    81  73  76 S10       30.02F
BRANSON        PTSUNNY   79  73  83 SW3       30.05F

$$
MOZ032>034-039>042-045>050-055>058-069>072-270000-
...CENTRAL MISSOURI...

CITY           SKY/WX    TMP DP  RH WIND       PRES   REMARKS
COLUMBIA       CLOUDY    79  74  84 SE6       30.03S
JEFFERSON CITY PTSUNNY   82  74  76 SE8       30.01S
ROLLA          CLOUDY    83  74  74 S3        30.03F
SEDALIA        CLOUDY    83  74  74 CALM      30.03S
WHITEMAN AFB   PTSUNNY   81  76  85 S7        30.00F
OSAGE BEACH    MOSUNNY   80  75  84 S3        30.03F

$$
MOZ051-052-059>065-270000-
...EAST CENTRAL MISSOURI...

CITY           SKY/WX    TMP DP  RH WIND       PRES   REMARKS
ST LOUIS INTL  CLOUDY    86  75  69 NE6       30.04R HX  95
SPIRIT OF STL  CLOUDY    84  76  76 N5        30.02R HX  93
ST CHARLES     CLOUDY    83  78  85 CALM      30.02S HX  93

$$
MOZ072>076-082>087-097>100-106>115-270000-
...SOUTH CENTRAL AND SOUTHEAST MISSOURI...

CITY           SKY/WX    TMP DP  RH WIND       PRES   REMARKS
CAPE GIRARDEAU CLOUDY    82  74  76 E7        30.04R
FARMINGTON     SUNNY     86  73  65 S3        30.07R HX  93
POPLAR BLUFF   CLOUDY    83  75  77 E5        30.05R HX  90
WEST PLAINS    SUNNY     86  68  54 SE6       30.08R

$$



USA.gov is the U.S. government's official web portal to all federal, state and local government web resources and services.